FW6463 Weather Reports


Display with metric or nautical units.
time (UTC)temp
F
wind
direction
speed
MPH
gust
MPH
rain 1hr
in
rain 24hr
in
rain mn
in
humidity
%
barometer
mb
20260906213609 82 284 3.0 6.0 0.00 0.00 0.00 61 1019.7
20260906212516 79 230 2.0 3.0 0.00 0.00 0.00 64 1019.8
20260906211520 80 273 3.0 5.0 0.00 0.00 0.00 63 1019.7
20260906210525 80 231 2.0 4.0 0.00 0.00 0.00 64 1019.7
20260906205550 80 255 2.0 3.0 0.00 0.00 0.00 67 1019.7
20260906204517 80 163 1.0 3.0 0.00 0.00 0.00 68 1019.6
20260906203522 81 330 4.0 6.0 0.00 0.00 0.00 64 1019.6
20260906202528 79 97 2.0 4.0 0.00 0.00 0.00 67 1019.6
20260906201532 79 171 3.0 5.0 0.00 0.00 0.00 68 1019.6
20260906200519 79 157 3.0 5.0 0.00 0.00 0.00 68 1019.7
20260906195524 79 343 3.0 5.0 0.00 0.00 0.00 69 1019.7
20260906194529 78 239 3.0 5.0 0.00 0.00 0.00 69 1019.6
20260906193516 79 230 3.0 5.0 0.00 0.00 0.00 69 1019.8
20260906192541 79 75 3.0 6.0 0.00 0.00 0.00 69 1019.8
20260906191526 79 265 3.0 6.0 0.00 0.00 0.00 69 1019.7
20260906190551 79 230 3.0 5.0 0.00 0.00 0.00 71 1019.7
20260906185518 79 191 4.0 7.0 0.00 0.00 0.00 71 1019.9
20260906184522 77 245 3.0 4.0 0.00 0.00 0.00 74 1020.1
20260906183527 78 73 4.0 7.0 0.00 0.00 0.00 71 1020.0
20260906182533 78 147 4.0 5.0 0.00 0.00 0.00 71 1019.9
20260906181519 77 320 2.0 4.0 0.00 0.00 0.00 72 1019.9
20260906180544 79 276 3.0 5.0 0.00 0.00 0.00 70 1020.0
20260906175529 79 310 3.0 6.0 0.00 0.00 0.00 71 1020.0
20260906174516 79 322 4.0 6.0 0.00 0.00 0.00 72 1020.1
20260906173521 78 62 4.0 7.0 0.00 0.00 0.00 73 1020.2
20260906172606 78 248 3.0 7.0 0.00 0.00 0.00 75 1020.3
20260906171552 78 60 3.0 6.0 0.00 0.00 0.00 73 1020.3
20260906170518 78 275 3.0 6.0 0.00 0.00 0.00 73 1020.2
20260906165604 77 65 3.0 4.0 0.00 0.00 0.00 75 1020.3
20260906164528 74 2.0 2.0 0.00 0.00 0.00 80 1020.4
20260906163553 74 340 3.0 4.0 0.00 0.00 0.00 80 1020.4
20260906162520 76 327 3.0 5.0 0.00 0.00 0.00 76 1020.4
20260906161525 77 141 4.0 8.0 0.00 0.00 0.00 74 1020.4
20260906160610 76 283 3.0 5.0 0.00 0.00 0.00 77 1020.5
20260906155517 76 245 3.0 6.0 0.00 0.00 0.00 77 1020.5
20260906154522 77 343 3.0 5.0 0.00 0.00 0.00 77 1020.3
20260906153548 75 199 4.0 6.0 0.00 0.00 0.00 79 1020.5
20260906152526 74 320 3.0 6.0 0.00 0.00 0.00 80 1020.4
20260906151518 75 247 3.0 5.0 0.00 0.00 0.00 81 1020.4
20260906150524 74 16 3.0 5.0 0.00 0.00 0.00 83 1020.4
20260906145522 74 323 4.0 5.0 0.00 0.00 0.00 82 1020.3
20260906144515 73 119 3.0 5.0 0.00 0.00 0.00 84 1020.2
20260906143521 73 238 2.0 3.0 0.00 0.00 0.00 84 1020.3
20260906142519 72 248 2.0 3.0 0.00 0.00 0.00 85 1020.2
20260906141519 71 259 2.0 3.0 0.00 0.00 0.00 87 1020.2
20260906140517 70 277 2.0 4.0 0.00 0.00 0.00 89 1020.1
20260906135516 70 36 2.0 4.0 0.00 0.00 0.00 91 1020.0
20260906134515 68 101 3.0 4.0 0.00 0.00 0.00 93 1020.1
20260906133552 67 104 2.0 5.0 0.00 0.00 0.00 95 1020.2
20260906132559 67 154 2.0 4.0 0.00 0.00 0.00 96 1020.1
20260906131524 66 284 1.0 3.0 0.00 0.00 0.00 99 1020.0
20260906130549 64 145 1.0 3.0 0.00 0.00 0.00 99 1020.0
20260906125515 63 273 2.0 4.0 0.00 0.00 0.00 99 1019.9
20260906124521 62 209 1.0 2.0 0.00 0.00 0.00 99 1019.8
20260906123526 61 195 2.0 3.0 0.00 0.00 0.00 99 1019.7
20260906122531 60 270 1.0 2.0 0.00 0.00 0.00 99 1019.5
20260906121518 58 45 0.0 3.0 0.00 0.00 0.00 99 1019.5
20260906120622 57 0.0 0.0 0.00 0.00 0.00 99 1019.5
20260906115527 56 0.0 0.0 0.00 0.00 0.00 99 1019.4
20260906114532 56 0.0 0.0 0.00 0.00 0.00 99 1019.2
20260906113519 55 0.0 0.0 0.00 0.00 0.00 99 1019.2
20260906112524 55 0.0 0.0 0.00 0.00 0.00 99 1019.1
20260906111529 55 0.0 0.0 0.00 0.00 0.00 99 1019.0
20260906110516 55 0.0 0.0 0.00 0.00 0.00 99 1018.8
20260906105521 55 0.0 0.0 0.00 0.00 0.00 99 1018.8
20260906104526 55 0.0 0.0 0.00 0.00 0.00 99 1018.6
20260906103531 55 0.0 0.0 0.00 0.00 0.00 99 1018.6
20260906102517 55 0.0 0.0 0.00 0.00 0.00 99 1018.5
20260906101523 55 0.0 0.0 0.00 0.00 0.00 99 1018.4
20260906100527 55 0.0 0.0 0.00 0.00 0.00 99 1018.3
20260906095532 55 0.0 0.0 0.00 0.00 0.00 99 1018.3
20260906094520 55 0.0 0.0 0.00 0.00 0.00 99 1018.3
20260906093524 55 0.0 0.0 0.00 0.00 0.00 99 1017.9
20260906092549 55 0.0 0.0 0.00 0.00 0.00 99 1017.8
20260906091516 55 0.0 0.0 0.00 0.00 0.00 99 1017.9
20260906090521 55 0.0 0.0 0.00 0.00 0.00 99 1017.9
20260906085526 55 0.0 0.0 0.00 0.00 0.00 99 1017.9
20260906084531 55 0.0 0.0 0.00 0.00 0.00 99 1017.6
20260906083517 56 0.0 0.0 0.00 0.00 0.00 99 1017.8
20260906082522 55 0.0 0.0 0.00 0.00 0.00 99 1017.7
20260906081528 56 0.0 0.0 0.00 0.00 0.00 99 1017.6
20260906080532 56 0.0 0.0 0.00 0.00 0.00 99 1017.6
20260906075519 56 0.0 0.0 0.00 0.00 0.00 99 1017.6
20260906074525 56 0.0 0.0 0.00 0.00 0.00 99 1017.6
20260906073529 56 0.0 0.0 0.00 0.00 0.00 99 1017.6
20260906072516 56 0.0 1.0 0.00 0.00 0.00 99 1017.5
20260906071542 56 0.0 0.0 0.00 0.00 0.00 99 1017.4
20260906070526 56 0.0 0.0 0.00 0.00 0.00 99 1017.3
20260906065531 57 0.0 0.0 0.00 0.00 0.00 99 1017.4
20260906064518 57 0.0 0.0 0.00 0.00 0.00 99 1017.3
20260906063543 57 0.0 0.0 0.00 0.00 0.00 99 1017.4
20260906062528 57 182 1.0 2.0 0.00 0.00 0.00 99 1017.6
20260906061526 57 0.0 0.0 0.00 0.00 0.00 99 1017.6
20260906060519 57 0.0 0.0 0.00 0.00 0.00 99 1017.6
20260906055524 57 0.0 0.0 0.00 0.00 0.00 99 1017.6
20260906054523 58 0.0 0.0 0.00 0.00 0.00 99 1017.6
20260906053516 58 180 0.0 1.0 0.00 0.00 0.00 99 1017.8
20260906052521 58 180 0.0 1.0 0.00 0.00 0.00 99 1017.8
20260906051520 58 0.0 0.0 0.00 0.00 0.00 99 1017.8
20260906050519 58 0.0 0.0 0.00 0.00 0.00 99 1017.8
20260906045538 58 0.0 0.0 0.00 0.00 0.00 99 1017.8
20260906044537 58 0.0 0.0 0.00 0.00 0.00 99 1017.8
20260906043536 58 0.0 0.0 0.00 0.00 0.00 99 1017.6
20260906042533 59 0.0 0.0 0.00 0.00 0.00 99 1017.6
20260906041559 59 0.0 0.0 0.00 0.00 0.00 99 1017.7
20260906040525 59 143 1.0 3.0 0.00 0.00 0.00 99 1017.7
20260906035529 59 0.0 0.0 0.00 0.00 0.00 99 1017.6
20260906034537 59 0.0 0.0 0.00 0.00 0.00 99 1017.8
20260906033521 60 0.0 0.0 0.00 0.00 0.00 99 1017.6
20260906032526 60 158 0.0 2.0 0.00 0.00 0.00 99 1017.4
20260906031551 60 0.0 0.0 0.00 0.00 0.00 99 1017.4
20260906030517 60 0.0 0.0 0.00 0.00 0.00 99 1017.4
20260906025542 60 0.0 0.0 0.00 0.00 0.00 99 1017.3
20260906024528 61 0.0 0.0 0.00 0.00 0.00 99 1017.3
20260906023532 61 0.0 0.0 0.00 0.00 0.00 99 1017.3
20260906022519 61 0.0 0.0 0.00 0.00 0.00 99 1017.1
20260906021525 61 0.0 0.0 0.00 0.00 0.00 99 1017.1
20260906020529 62 0.0 0.0 0.00 0.00 0.00 99 1017.1
20260906015516 62 0.0 0.0 0.00 0.00 0.00 99 1017.0
20260906014521 62 0.0 0.0 0.00 0.00 0.00 99 1016.8
20260906013526 63 0.0 0.0 0.00 0.00 0.00 99 1016.5
20260906012530 63 0.0 0.0 0.00 0.00 0.00 99 1016.4
20260906011517 64 0.0 0.0 0.00 0.00 0.00 99 1016.5
20260906010522 64 0.0 0.0 0.00 0.00 0.00 99 1016.5
20260906005527 65 0.0 0.0 0.00 0.00 0.00 99 1016.5
20260906004532 65 0.0 0.0 0.00 0.00 0.00 99 1016.4
20260906003519 66 0.0 0.0 0.00 0.00 0.00 98 1016.3
20260906002544 67 0.0 0.0 0.00 0.00 0.00 98 1016.2
20260906001549 68 0.0 0.0 0.00 0.00 0.00 95 1016.2
20260906000516 69 0.0 0.0 0.00 0.00 0.00 93 1016.1
20260905235521 70 0.0 0.0 0.00 0.00 0.00 92 1015.9
20260905234526 71 0.0 0.0 0.00 0.00 0.00 89 1015.8
20260905233531 73 158 0.0 2.0 0.00 0.00 0.00 87 1015.6
20260905232518 76 0.0 0.0 0.00 0.00 0.00 83 1015.6
20260905231523 78 135 0.0 1.0 0.00 0.00 0.00 78 1015.6
20260905230528 81 135 0.0 1.0 0.00 0.00 0.00 75 1015.7
20260905225532 83 0.0 0.0 0.00 0.00 0.00 70 1015.5
20260905224519 84 180 0.0 1.0 0.00 0.00 0.00 69 1015.3
20260905223525 86 89 1.0 3.0 0.00 0.00 0.00 66 1015.4
20260905222529 87 310 1.0 2.0 0.00 0.00 0.00 62 1015.3
20260905221536 86 298 2.0 3.0 0.00 0.00 0.00 63 1015.2
20260905220521 88 318 1.0 2.0 0.00 0.00 0.00 61 1015.2
20260905215525 85 248 1.0 3.0 0.00 0.00 0.00 66 1015.2
20260905214530 86 197 2.0 5.0 0.00 0.00 0.00 65 1015.1